[[{"header":{"parameterUnit":"m.s-1","parameterCategory":1,"la1":30.2991,"la2":30.254,"lo1":-89.0895,"lo2":-89.0444,"dy":0.0017,"dx":0.0017,"nx":28,"ny":28,"refTime":"2026-01-04T09:00:00:Z","depth":0,"parameterNumber":2,"parameterNumberName":"U-component_of_WINDS"},"data":[0,0,0,0,0,0,0,0,0,0,0,0,0,0,0,0,0,0,0,0,0,0,0,0,0,0,0,0,0,0,0,0,0,0,0,0,0,0,0,0,0,0,0,0,0,0,0,0,0,0,0,0,0,0,0,0,0,0,-0.4455,-0.4455,0,-0.4454,-0.4454,-0.4454,-0.4427,-0.4426,-0.4426,-0.4425,-0.4426,-0.4427,-0.4427,0,0,0,0,0,0,0,0,0,0,0,0,0,-0.4434,-0.4434,-0.4455,-0.4455,-0.4455,-0.4454,-0.4454,-0.4454,-0.4427,-0.4426,-0.4426,-0.4425,-0.4426,-0.4427,-0.4427,0,0,0,0,0,0,0,0,0,0,0,0,0,-0.4439,-0.4434,-0.4455,-0.4441,-0.444,-0.4454,-0.4454,-0.4454,-0.4427,-0.4426,-0.4425,-0.4424,-0.4426,-0.4427,-0.4428,-0.4455,0,0,-0.4431,-0.4431,0,0,0,0,0,0,0,0,-0.4439,-0.444,-0.4443,-0.4442,-0.4441,-0.444,-0.4447,-0.4454,-0.4428,-0.4432,-0.4425,-0.4424,-0.4431,-0.4432,-0.4434,-0.4455,-0.4455,-0.4431,-0.4431,-0.4432,-0.4432,0,0,0,0,0,0,0,-0.4438,-0.444,-0.4454,-0.4443,-0.4442,-0.4436,-0.4435,-0.4448,-0.4438,-0.4432,-0.443,-0.443,-0.4431,-0.4433,-0.4434,-0.4455,-0.4431,-0.4432,-0.4432,-0.4433,-0.4499,-0.45,0,0,0,0,0,0,-0.444,-0.4439,-0.4454,-0.4454,-0.4437,-0.4437,-0.4436,-0.4441,-0.4438,-0.4436,-0.4431,-0.4429,-0.4432,-0.4433,-0.4434,-0.4466,-0.4432,-0.4433,-0.4433,-0.4498,-0.4499,-0.4501,0,0,0,0,0,0,-0.4439,-0.4441,-0.4454,-0.4446,-0.4448,-0.4438,-0.4444,-0.4442,-0.4444,-0.4437,-0.4435,-0.4436,-0.4431,-0.4433,-0.445,-0.4466,-0.4433,-0.4434,-0.4497,-0.4498,-0.45,-0.4531,0,0,0,0,0,0,-0.4439,-0.4441,-0.4451,-0.4447,-0.4448,-0.447,-0.4445,-0.4442,-0.4446,-0.4443,-0.4441,-0.4439,-0.4431,-0.4449,-0.4451,-0.4467,-0.4435,-0.4495,-0.4497,-0.4499,-0.4529,-0.4534,-0.4538,0,0,0,0,0,-0.4438,-0.446,-0.4452,-0.4454,-0.446,-0.4471,-0.4472,-0.4461,-0.4447,-0.4458,-0.4453,-0.4439,-0.4464,-0.4451,-0.4453,-0.4469,-0.4494,-0.4497,-0.4499,-0.4527,-0.4533,-0.4538,0,0,0,0,0,0,-0.4467,-0.4459,-0.445,-0.4471,-0.4472,-0.4467,-0.4479,-0.4468,-0.4473,-0.447,-0.4456,-0.4456,-0.4476,-0.4474,-0.446,-0.4496,-0.4477,-0.448,-0.4496,-0.4502,-0.4507,-0.4507,-0.4436,0,0,0,0,0,-0.4476,-0.4485,-0.4478,-0.4497,-0.4498,-0.4489,-0.4493,-0.4484,-0.4485,-0.4485,-0.4482,-0.4483,-0.4491,-0.4496,-0.4503,-0.4528,-0.4528,-0.4541,-0.4545,-0.4549,-0.4552,-0.4566,-0.4572,-0.4509,-0.4509,-0.4509,0,0,-0.4495,-0.4491,-0.4498,-0.4503,-0.4503,-0.4513,-0.4489,-0.4501,-0.4508,-0.4487,-0.4503,-0.4501,-0.4501,-0.4523,-0.4532,-0.4522,-0.4569,-0.4553,-0.4556,-0.4557,-0.4569,-0.4575,-0.458,-0.4511,-0.451,-0.451,0,0,-0.4534,-0.4532,-0.4548,-0.4548,-0.4547,-0.4541,-0.4545,-0.4541,-0.4539,-0.4555,-0.4539,-0.4548,-0.4562,-0.4563,-0.4565,-0.4605,-0.4593,-0.4608,-0.4632,-0.4646,-0.4651,-0.4655,-0.467,-0.4675,-0.4611,-0.4611,-0.4611,0,-0.4557,-0.4571,-0.4558,-0.4571,-0.4574,-0.4554,-0.4571,-0.4572,-0.4574,-0.4576,-0.4565,-0.4582,-0.4581,-0.4603,-0.4613,-0.4615,-0.462,-0.4608,-0.4651,-0.4655,-0.4659,-0.4673,-0.4678,-0.4612,-0.4612,-0.4612,-0.4612,0,-0.46,-0.461,-0.4623,-0.4625,-0.4629,-0.4644,-0.4634,-0.464,-0.4631,-0.4626,-0.4643,-0.4641,-0.4647,-0.4652,-0.4643,-0.4672,-0.4666,-0.4653,-0.4633,-0.4667,-0.468,-0.4685,-0.4615,-0.4614,-0.4614,-0.4613,0,0,-0.4657,-0.4652,-0.4657,-0.4658,-0.4656,-0.4663,-0.4677,-0.4683,-0.4689,-0.4691,-0.4703,-0.4715,-0.4703,-0.4706,-0.4697,-0.4709,-0.4741,-0.4694,-0.4694,-0.4704,-0.4774,-0.4784,-0.479,-0.4733,-0.4734,-0.4735,-0.4774,0,-0.4695,-0.4718,-0.4707,-0.4732,-0.4741,-0.4723,-0.4735,-0.4736,-0.4731,-0.4739,-0.4734,-0.4744,-0.4727,-0.4728,-0.4739,-0.4735,-0.4755,-0.4732,-0.4745,-0.4745,-0.4745,-0.4797,-0.4808,-0.4845,-0.4779,-0.478,-0.478,0,-0.4743,-0.4746,-0.4772,-0.4768,-0.4772,-0.4783,-0.4788,-0.4795,-0.4795,-0.4791,-0.4795,-0.4784,-0.4798,-0.4778,-0.4797,-0.4782,-0.4786,-0.4785,-0.4786,-0.4787,-0.4765,-0.48,-0.4857,-0.4863,-0.4788,-0.4787,-0.4787,0,-0.4783,-0.4794,-0.4811,-0.4812,-0.4808,-0.4817,-0.4816,-0.4815,-0.4819,-0.4823,-0.4826,-0.4832,-0.4835,-0.4841,-0.4832,-0.4818,-0.4853,-0.4832,-0.4851,-0.4851,-0.4859,-0.4859,-0.4918,-0.4861,-0.4861,-0.4861,-0.4861,0,-0.4827,-0.4843,-0.4829,-0.4839,-0.4857,-0.4845,-0.4863,-0.486,-0.4859,-0.4869,-0.4854,-0.4864,-0.4851,-0.486,-0.4853,-0.4871,-0.4872,-0.487,-0.4868,-0.4872,-0.4872,-0.4875,-0.4872,-0.4863,-0.4862,-0.4862,-0.4862,0,-0.4875,-0.4866,-0.4883,-0.4878,-0.4877,-0.4891,-0.4886,-0.4896,-0.4891,-0.4904,-0.4906,-0.4898,-0.4907,-0.4899,-0.4908,-0.4903,-0.4927,-0.4921,-0.4927,-0.4925,-0.4945,-0.4943,-0.5008,-0.5016,-0.4954,-0.4955,-0.4955,0,-0.4904,-0.4916,-0.4912,-0.4917,-0.4917,-0.4926,-0.493,-0.4918,-0.4923,-0.4924,-0.4934,-0.4942,-0.4948,-0.4965,-0.496,-0.4967,-0.4962,-0.4984,-0.4963,-0.4966,-0.4963,-0.4962,-0.4964,-0.4988,-0.4989,-0.499,-0.499,0,-0.4956,-0.4951,-0.4957,-0.4962,-0.4968,-0.4971,-0.4973,-0.4979,-0.4967,-0.4973,-0.4982,-0.4987,-0.4996,-0.5005,-0.5011,-0.501,-0.4999,-0.4997,-0.5001,-0.5006,-0.5009,-0.5008,-0.4939,-0.4995,-0.4995,-0.4994,-0.4994,-0.4994,-0.4996,-0.5006,-0.5005,-0.5013,-0.5013,-0.5015,-0.5024,-0.502,-0.5027,-0.5034,-0.5026,-0.5038,-0.5038,-0.5045,-0.5046,-0.5055,-0.5046,-0.5053,-0.5055,-0.5057,-0.506,-0.5007,-0.5056,-0.5056,-0.5056,-0.5055,-0.5055,0,-0.5048,-0.5046,-0.5053,-0.5057,-0.5063,-0.5051,-0.5053,-0.5059,-0.5069,-0.507,-0.5076,-0.5088,-0.5096,-0.5092,-0.5099,-0.5108,-0.5102,-0.511,-0.511,-0.511,-0.5067,-0.5062,-0.5114,-0.5114,-0.5114,-0.5114,-0.5114,-0.5114,-0.5076,-0.5092,-0.5087,-0.5104,-0.5102,-0.5113,-0.5115,-0.5118,-0.5119,-0.5132,-0.5138,-0.5135,-0.5135,-0.5142,-0.5149,-0.5148,-0.5152,-0.5161,-0.5158,-0.5118,-0.5113,-0.5107,-0.5103,-0.5162,-0.5162,-0.52,-0.52,-0.5201]},{"header":{"parameterUnit":"m.s-1","parameterCategory":1,"la1":30.2991,"la2":30.254,"lo1":-89.0895,"lo2":-89.0444,"dy":0.0017,"dx":0.0017,"nx":28,"ny":28,"refTime":"2026-01-04T09:00:00:Z","depth":0,"parameterNumber":3,"parameterNumberName":"V-component_of_WINDS"},"data":[0,0,0,0,0,0,0,0,0,0,0,0,0,0,0,0,0,0,0,0,0,0,0,0,0,0,0,0,0,0,0,0,0,0,0,0,0,0,0,0,0,0,0,0,0,0,0,0,0,0,0,0,0,0,0,0,0,0,-1.7651,-1.7651,0,-1.7666,-1.7666,-1.7666,-1.7643,-1.7642,-1.7641,-1.7641,-1.7656,-1.7657,-1.7658,0,0,0,0,0,0,0,0,0,0,0,0,0,-1.7601,-1.7602,-1.7651,-1.7651,-1.7651,-1.7666,-1.7666,-1.7667,-1.7643,-1.7642,-1.7641,-1.764,-1.7655,-1.7657,-1.7658,0,0,0,0,0,0,0,0,0,0,0,0,0,-1.762,-1.7602,-1.7651,-1.7642,-1.7641,-1.7666,-1.7666,-1.7667,-1.7643,-1.7642,-1.7641,-1.764,-1.7655,-1.7657,-1.7658,-1.7694,0,0,-1.7664,-1.7664,0,0,0,0,0,0,0,0,-1.7619,-1.7622,-1.7643,-1.7642,-1.7642,-1.7651,-1.7654,-1.7676,-1.7644,-1.7642,-1.7641,-1.7639,-1.7655,-1.7657,-1.7662,-1.7694,-1.7695,-1.7664,-1.7665,-1.7666,-1.7666,0,0,0,0,0,0,0,-1.7618,-1.7621,-1.7657,-1.7643,-1.7642,-1.7636,-1.7638,-1.7658,-1.7656,-1.7642,-1.7641,-1.7643,-1.7655,-1.7661,-1.7663,-1.7695,-1.7664,-1.7665,-1.7666,-1.7667,-1.7755,-1.7756,0,0,0,0,0,0,-1.7618,-1.762,-1.7657,-1.7657,-1.7627,-1.7638,-1.764,-1.7649,-1.7655,-1.7655,-1.7644,-1.7642,-1.7658,-1.7661,-1.7663,-1.7704,-1.7666,-1.7667,-1.7668,-1.7754,-1.7755,-1.7757,0,0,0,0,0,0,-1.7617,-1.7621,-1.7656,-1.7638,-1.7642,-1.764,-1.7652,-1.765,-1.7656,-1.7656,-1.7656,-1.7651,-1.7658,-1.7661,-1.7686,-1.7704,-1.7668,-1.767,-1.7752,-1.7754,-1.7756,-1.7786,0,0,0,0,0,0,-1.7615,-1.7621,-1.7635,-1.7639,-1.7643,-1.7679,-1.7653,-1.7652,-1.766,-1.7657,-1.7663,-1.7662,-1.7657,-1.7683,-1.7688,-1.7706,-1.7671,-1.7751,-1.7753,-1.7755,-1.7783,-1.7789,-1.7793,0,0,0,0,0,-1.7614,-1.7643,-1.7636,-1.764,-1.7661,-1.768,-1.7683,-1.7676,-1.7661,-1.7675,-1.7674,-1.7662,-1.7701,-1.7686,-1.7691,-1.771,-1.7749,-1.7752,-1.7755,-1.7781,-1.7788,-1.7793,0,0,0,0,0,0,-1.7641,-1.7643,-1.7635,-1.7667,-1.7673,-1.7676,-1.7693,-1.7683,-1.7694,-1.7691,-1.7682,-1.7684,-1.771,-1.7713,-1.7696,-1.7743,-1.7723,-1.7727,-1.7741,-1.7747,-1.7752,-1.7751,-1.7673,0,0,0,0,0,-1.7651,-1.7667,-1.7668,-1.7695,-1.7699,-1.7695,-1.7704,-1.7698,-1.7704,-1.7707,-1.7709,-1.7715,-1.7729,-1.7738,-1.7751,-1.7783,-1.7784,-1.7799,-1.7803,-1.7808,-1.7811,-1.7827,-1.7834,-1.7766,-1.7766,-1.7766,0,0,-1.7671,-1.7674,-1.7685,-1.7701,-1.7705,-1.7721,-1.7698,-1.7716,-1.7728,-1.771,-1.7733,-1.7735,-1.7741,-1.777,-1.7783,-1.7773,-1.783,-1.7811,-1.7814,-1.7816,-1.7831,-1.7837,-1.7843,-1.7768,-1.7768,-1.7767,0,0,-1.7716,-1.7721,-1.7744,-1.7748,-1.7755,-1.7752,-1.7758,-1.7762,-1.7762,-1.7785,-1.7771,-1.7785,-1.7809,-1.7814,-1.782,-1.7865,-1.7854,-1.7869,-1.7895,-1.7911,-1.7917,-1.7921,-1.7937,-1.7943,-1.7873,-1.7873,-1.7873,0,-1.7741,-1.7765,-1.7757,-1.7776,-1.7783,-1.7766,-1.7789,-1.7794,-1.7804,-1.7809,-1.7798,-1.7827,-1.783,-1.7859,-1.787,-1.7876,-1.7881,-1.7869,-1.7917,-1.7921,-1.7925,-1.794,-1.7946,-1.7875,-1.7875,-1.7874,-1.7874,0,-1.7794,-1.7811,-1.7829,-1.7839,-1.7848,-1.7868,-1.7863,-1.7873,-1.7865,-1.7864,-1.7887,-1.789,-1.7903,-1.7909,-1.7903,-1.7937,-1.7931,-1.7918,-1.7897,-1.7934,-1.7947,-1.7953,-1.7877,-1.7877,-1.7876,-1.7876,0,0,-1.7858,-1.7862,-1.7869,-1.7873,-1.7878,-1.7891,-1.791,-1.7922,-1.7931,-1.7938,-1.7954,-1.7974,-1.7962,-1.7968,-1.7962,-1.7976,-1.8011,-1.7961,-1.7961,-1.797,-1.8048,-1.8057,-1.8064,-1.8003,-1.8004,-1.8005,-1.8047,0,-1.7903,-1.7937,-1.7929,-1.7962,-1.7977,-1.796,-1.7977,-1.7982,-1.7981,-1.7992,-1.7991,-1.8005,-1.7988,-1.7992,-1.8005,-1.8004,-1.8026,-1.8,-1.8017,-1.8018,-1.8016,-1.8071,-1.8081,-1.8121,-1.8052,-1.8053,-1.8054,0,-1.796,-1.7969,-1.8003,-1.8005,-1.8011,-1.8026,-1.8035,-1.8047,-1.8052,-1.805,-1.8056,-1.8047,-1.8065,-1.8044,-1.8069,-1.8052,-1.8058,-1.8059,-1.806,-1.8061,-1.8038,-1.8073,-1.8133,-1.8139,-1.8062,-1.8061,-1.8061,0,-1.8002,-1.8023,-1.8046,-1.8049,-1.8052,-1.8063,-1.8065,-1.8068,-1.8076,-1.8084,-1.8088,-1.8099,-1.8104,-1.8112,-1.8106,-1.8091,-1.8132,-1.811,-1.813,-1.813,-1.8139,-1.8139,-1.8201,-1.8144,-1.8144,-1.8144,-1.8144,0,-1.8053,-1.8074,-1.8065,-1.8079,-1.8102,-1.8092,-1.8115,-1.8115,-1.8118,-1.8131,-1.8118,-1.8131,-1.8121,-1.8133,-1.8128,-1.8149,-1.8152,-1.815,-1.8149,-1.8152,-1.8152,-1.8156,-1.8153,-1.8145,-1.8145,-1.8145,-1.8144,0,-1.8105,-1.8099,-1.8123,-1.8123,-1.8123,-1.814,-1.814,-1.8153,-1.815,-1.8167,-1.817,-1.8166,-1.8179,-1.8173,-1.8187,-1.8183,-1.821,-1.8205,-1.8208,-1.8207,-1.8227,-1.8225,-1.8293,-1.8301,-1.8239,-1.824,-1.824,0,-1.8137,-1.8153,-1.8155,-1.8162,-1.8165,-1.8178,-1.8184,-1.8175,-1.8183,-1.8189,-1.82,-1.8212,-1.8221,-1.8243,-1.824,-1.825,-1.8245,-1.8268,-1.8247,-1.8249,-1.8245,-1.8244,-1.8245,-1.8273,-1.8274,-1.8274,-1.8275,0,-1.8195,-1.8191,-1.8202,-1.8211,-1.8219,-1.8226,-1.8232,-1.8239,-1.823,-1.8239,-1.8252,-1.8259,-1.8272,-1.8284,-1.8292,-1.8294,-1.8283,-1.8281,-1.8286,-1.8289,-1.829,-1.829,-1.822,-1.828,-1.8279,-1.8279,-1.8279,-1.8279,-1.8238,-1.8251,-1.8254,-1.8265,-1.8268,-1.8274,-1.8285,-1.8283,-1.8293,-1.8303,-1.8297,-1.8312,-1.8315,-1.8325,-1.8328,-1.8339,-1.833,-1.8338,-1.8339,-1.8341,-1.8344,-1.8289,-1.8341,-1.8341,-1.8341,-1.8341,-1.834,0,-1.8295,-1.8296,-1.8306,-1.8314,-1.8323,-1.8311,-1.8316,-1.8325,-1.8338,-1.8341,-1.835,-1.8364,-1.8375,-1.8373,-1.8383,-1.8392,-1.8387,-1.8395,-1.8394,-1.8394,-1.8352,-1.8346,-1.8399,-1.8399,-1.8399,-1.8399,-1.8398,-1.8398,-1.8326,-1.8347,-1.8343,-1.8365,-1.8365,-1.8379,-1.8383,-1.8387,-1.839,-1.8406,-1.8415,-1.8413,-1.8414,-1.8424,-1.8433,-1.8432,-1.8436,-1.8446,-1.8443,-1.8403,-1.8397,-1.8392,-1.8387,-1.8447,-1.8447,-1.8484,-1.8485,-1.8485]}]]